Regional Weather Roundup
Issued by NWS Kansas City/Pleasant Hill, MO

Home | Current Version | Previous Version | Graphics & Text | Print | Product List | Glossary Off
Versions: 1 2 3 4 5 6 7 8 9 10 11 12 13 14 15 16 17 18 19 20 21 22 23 24 25 26 27

000
ASUS43 KEAX 211510
RWREAX

WEATHER ROUNDUP FOR EASTERN KANSAS AND NORTHWEST MISSOURI
NATIONAL WEATHER SERVICE KANSAS CITY/PLEASANT HILL MO
900 AM CST SUN JAN 21 2018

KSZ040-057-103>105-MOZ028-029-037-043-211600-
...KANSAS CITY METROPOLITAN AREA...

CITY           SKY/WX    TMP DP  RH WIND       PRES   REMARKS
K.C. INTL      CLOUDY    52  49  89 SE9       29.78S
K.C. DOWNTOWN  CLOUDY    52  47  83 E3        29.78S
LEES SUMMIT    CLOUDY    52  51  97 SE10      29.79S
OLATHE - IXD   CLOUDY    54  51  90 S10       29.78R
OLATHE - OJC   CLOUDY    49  49 100 SE5       29.78R
LAWRENCE       CLOUDY    52  50  93 E8        29.77R

$$

MOZ001>008-011>017-020>025-030>033-038>040-044>046-053-054-211600-
...NORTHERN AND CENTRAL MISSOURI...

CITY           SKY/WX    TMP DP  RH WIND       PRES   REMARKS
ST. JOSEPH     CLOUDY    44  44 100 CALM      29.78S FOG
MOSBY            N/A     52  48  87 SE8       29.80S
WARRENSBURG    CLOUDY    50  46  87 SE6       29.82S
WHITEMAN AFB   PTSUNNY   51  48  89 S8        29.78S
CLINTON        CLOUDY    48  48 100 S5        29.83S
SEDALIA        CLOUDY    50  50 100 SE7       29.85S
WARSAW         NOT AVBL
CHILLICOTHE      N/A     49  45  86 SE6       29.83F
KIRKSVILLE     CLOUDY    47  47 100 SE8       29.86S

$$

MOZ041-047>049-056>058-063>065-088>090-097-211600-
...EASTERN AND SOUTHERN MISSOURI...

CITY           SKY/WX    TMP DP  RH WIND       PRES   REMARKS
ST. LOUIS INTL PTSUNNY   50  50 100 E9        29.96S FOG
SPIRIT OF STL  FOG       47  47 100 E3        29.94S VSB 1/2
COLUMBIA       MOSUNNY   51  50  96 SE9       29.88S
JEFFERSON CITY MOSUNNY   43  42  97 SE8       29.89S FOG
ROLLA          SUNNY     56  53  90 S15G23    29.91R
OSAGE BEACH    SUNNY     53  51  93 S8        29.88S
SPRINGFIELD    SUNNY     56  53  90 S17       29.87S
BRANSON        MOSUNNY   59  54  82 S8        29.93R
JOPLIN         SUNNY     60  55  83 S22G32    29.83R
WEST PLAINS    CLOUDY    56  55  97 S12       29.98S

$$

IAZ060-094-KSZ022-034>040-054-083-096-NEZ052-066-093-211600-
...KANSAS...SOUTHEAST NEBRASKA AND IOWA...

CITY           SKY/WX    TMP DP  RH WIND       PRES   REMARKS
TOPEKA         CLOUDY    51  51 100 SE7       29.75R
MANHATTAN      CLOUDY    48  47  96 CALM      29.71R FOG
EMPORIA        CLOUDY    52  49  89 S17G25    29.72R
CHANUTE        PTSUNNY   57  53  86 S23G29    29.77F
WICHITA        CLOUDY    49  48  97 S15       29.72R
OMAHA          CLOUDY    40  38  93 NW8       29.80F FOG     WCI  34
LINCOLN        CLOUDY    40  37  89 N10       29.79R FOG     WCI  33
FALLS CITY     FOG       43  43 100 E7        29.74S VSB 1/2
LAMONI         FOG       43  42  97 E6        29.80F VSB 1/4
DES MOINES     CLOUDY    40  38  93 E8        29.86R FOG     WCI  34

$$





USA.gov is the U.S. government's official web portal to all federal, state and local government web resources and services.